Muscle Shoals, AL

5:51 AM CDT on April 24, 2018 (GMT -0500)
Northwest Alabama Regional

Weather History for KMSL - January, 2014

Change the Weather History Date:

Saturday, January 4, 2014

  Actual Average Record
Temperature  
Mean Temperature 35 °F 41 °F  
Max Temperature 49 °F 50 °F 76 °F (2004)
Min Temperature 20 °F 31 °F 0 °F (1919)
Degree Days  
Heating Degree Days 30 24  
Month to date heating degree days 121 96  
Since 1 July heating degree days 1380 1332  
Cooling Degree Days 0 0  
Month to date cooling degree days 0 0  
Year to date cooling degree days 0 0  
Moisture  
Dew Point 19 °F    
Average Humidity 51    
Maximum Humidity 70    
Minimum Humidity 31    
Precipitation  
Precipitation 0.00 in 0.15 in 1.77 in (1957)
Month to date precipitation 0.16 0.60  
Year to date precipitation 0.16 0.60  
Snow  
Snow 0.00 in - - ()
Month to date snowfall 0.0  
Since 1 July snowfall T  
Snow Depth 0.00 in    
Sea Level Pressure  
Sea Level Pressure 30.23 in    
Wind  
Wind Speed 7 mph (SE)    
Max Wind Speed 18 mph    
Max Gust Speed 23 mph    
Visibility 10 miles    
Events      
T = Trace of Precipitation, MM = Missing Value Source: NWS Daily Summary

Daily Weather History Graph

Daily Weather History Graph

Search for Another Location

Airport or City:

Astronomy

Jan. 04, 2014 Rise Set
Actual Time 6:58 AM CST 4:52 PM CST
Civil Twilight 6:30 AM CST 5:20 PM CST
Nautical Twilight 5:59 AM CST 5:52 PM CST
Astronomical Twilight 5:28 AM CST 6:22 PM CST
Moon 9:13 AM CST (1/4) 9:01 PM CST (1/4)
Length of Visible Light 10h 50m
Length of Day
9h 54m
Waxing Crescent, 15% of the Moon is Illuminated
Jan 4
Waxing Crescent
Jan 7
First Quarter
Jan 15
Full
Jan 23
Last Quarter
Jan 30
New

Hourly Weather History & Observations

Time (CST) Temp. Windchill Dew Point Humidity Pressure Visibility Wind Dir Wind Speed Gust Speed Precip Events Conditions
12:53 AM 23.0 °F 15.8 °F 12.0 °F 63% 30.31 in 10.0 mi SE 5.8 mph - N/A   Clear
1:53 AM 21.9 °F - 12.9 °F 68% 30.33 in 10.0 mi Calm Calm - N/A   Clear
2:53 AM 21.9 °F - 12.0 °F 66% 30.34 in 10.0 mi Calm Calm - N/A   Clear
3:53 AM 21.0 °F 16.2 °F 12.9 °F 71% 30.34 in 10.0 mi East 3.5 mph - N/A   Clear
4:53 AM 21.9 °F - 12.0 °F 66% 30.33 in 10.0 mi Calm Calm - N/A   Clear
5:53 AM 21.0 °F 13.4 °F 12.0 °F 68% 30.32 in 10.0 mi ESE 5.8 mph - N/A   Clear
6:53 AM 21.0 °F 14.6 °F 12.0 °F 68% 30.33 in 10.0 mi East 4.6 mph - N/A   Clear
7:53 AM 24.1 °F 18.2 °F 15.1 °F 69% 30.34 in 10.0 mi East 4.6 mph - N/A   Clear
8:53 AM 30.9 °F 22.8 °F 17.1 °F 57% 30.33 in 10.0 mi SE 9.2 mph - N/A   Clear
9:53 AM 37.9 °F 29.2 °F 16.0 °F 41% 30.32 in 10.0 mi SSE 15.0 mph 23.0 mph N/A   Clear
10:53 AM 41.0 °F 33.9 °F 17.1 °F 38% 30.30 in 10.0 mi SE 12.7 mph 20.7 mph N/A   Clear
11:53 AM 45.0 °F 39.3 °F 18.0 °F 34% 30.25 in 10.0 mi South 11.5 mph - N/A   Clear
12:53 PM 46.9 °F - 19.0 °F 33% 30.22 in 10.0 mi South 13.8 mph - N/A   Clear
1:53 PM 48.0 °F - 19.9 °F 33% 30.18 in 10.0 mi South 10.4 mph 19.6 mph N/A   Clear
2:53 PM 48.9 °F - 21.9 °F 35% 30.15 in 10.0 mi SSE 12.7 mph - N/A   Clear
3:53 PM 48.0 °F - 21.9 °F 36% 30.14 in 10.0 mi SSE 10.4 mph - N/A   Clear
4:53 PM 43.0 °F 38.2 °F 24.1 °F 47% 30.12 in 10.0 mi SE 8.1 mph - N/A   Clear
5:53 PM 41.0 °F 36.4 °F 28.0 °F 60% 30.12 in 10.0 mi SE 6.9 mph - N/A   Clear
6:53 PM 37.0 °F 34.5 °F 27.0 °F 67% 30.11 in 10.0 mi SE 3.5 mph - N/A   Clear
7:53 PM 37.0 °F 32.4 °F 27.0 °F 67% 30.12 in 10.0 mi SE 5.8 mph - N/A   Clear
8:53 PM 36.0 °F 30.3 °F 27.0 °F 70% 30.12 in 10.0 mi SSE 6.9 mph - N/A   Clear
9:53 PM 36.0 °F 30.3 °F 27.0 °F 70% 30.12 in 10.0 mi SE 6.9 mph - N/A   Clear
10:53 PM 37.9 °F 32.1 °F 27.0 °F 65% 30.11 in 10.0 mi SSE 8.1 mph - N/A   Clear
11:53 PM 35.1 °F 31.0 °F 27.0 °F 72% 30.11 in 10.0 mi SE 4.6 mph - N/A   Scattered Clouds